Clinton-Sherman, OK

7:21 PM CDT on October 19, 2017 (GMT -0500)
Clinton-Sherman

Weather History for KCSM - November, 2013

Change the Weather History Date:

Wednesday, November 20, 2013

  Actual Average Record
Temperature  
Mean Temperature 59 °F -  
Max Temperature 66 °F 56 °F 82 °F (2007)
Min Temperature 52 °F 36 °F 30 °F (2000)
Degree Days  
Heating Degree Days 6    
Growing Degree Days 9 (Base 50)    
Moisture  
Dew Point 48 °F    
Average Humidity 68    
Maximum Humidity 81    
Minimum Humidity 50    
Precipitation  
Precipitation 0.00 in - - ()
Sea Level Pressure  
Sea Level Pressure 29.81 in    
Wind  
Wind Speed 22 mph (SSE)    
Max Wind Speed 30 mph    
Max Gust Speed 34 mph    
Visibility 10 miles    
Events      
Averages and records for this station are not official NWS values.
T = Trace of Precipitation, MM = Missing Value Source: NWS Daily Summary

Daily Weather History Graph

Daily Weather History Graph

Search for Another Location

Airport or City:

Trip Planner

Search our weather history database for the weather conditions in past years. The results will help you decide how hot, cold, wet, or windy it might be!

Date:

Astronomy

Nov. 20, 2013 Rise Set
Actual Time 7:17 AM CST 5:27 PM CST
Civil Twilight 6:49 AM CST 5:54 PM CST
Nautical Twilight 6:18 AM CST 6:25 PM CST
Astronomical Twilight 5:48 AM CST 6:56 PM CST
Moon 8:11 PM CST 9:43 AM CST
Length of Visible Light 11h 05m
Length of Day
10h 10m
Waning Gibbous, 91% of the Moon is Illuminated
Nov 20
Waning Gibbous
Nov 25
Last Quarter
Dec 2
New
Dec 9
First Quarter
Dec 17
Full

Hourly Weather History & Observations

Time (CST) Temp. Dew Point Humidity Pressure Visibility Wind Dir Wind Speed Gust Speed Precip Events Conditions
12:53 AM 52.0 °F 34.0 °F 50% 29.86 in 10.0 mi SSE 19.6 mph - N/A   Partly Cloudy
1:53 AM 52.0 °F 35.1 °F 53% 29.85 in 10.0 mi South 24.2 mph 33.4 mph N/A   Clear
2:53 AM 52.0 °F 36.0 °F 54% 29.82 in 10.0 mi South 29.9 mph 34.5 mph N/A   Partly Cloudy
3:21 AM 53.6 °F 37.4 °F 54% 29.85 in 10.0 mi South 27.6 mph 34.5 mph N/A   Overcast
3:53 AM 53.1 °F 37.9 °F 57% 29.82 in 10.0 mi South 24.2 mph - N/A   Overcast
4:53 AM 53.1 °F 39.9 °F 61% 29.81 in 10.0 mi South 23.0 mph 31.1 mph N/A   Overcast
5:53 AM 53.1 °F 41.0 °F 64% 29.81 in 10.0 mi South 25.3 mph 32.2 mph N/A   Overcast
6:53 AM 53.1 °F 42.1 °F 66% 29.81 in 10.0 mi South 26.5 mph 29.9 mph N/A   Overcast
7:53 AM 53.1 °F 43.0 °F 69% 29.83 in 10.0 mi South 23.0 mph - N/A   Overcast
8:43 AM 55.4 °F 46.4 °F 72% 29.85 in 10.0 mi South 24.2 mph 34.5 mph N/A   Scattered Clouds
8:53 AM 55.9 °F 46.0 °F 69% 29.83 in 10.0 mi South 25.3 mph 32.2 mph N/A   Partly Cloudy
9:53 AM 59.0 °F 48.9 °F 69% 29.83 in 10.0 mi South 28.8 mph 34.5 mph N/A   Clear
10:53 AM 62.1 °F 51.1 °F 67% 29.81 in 10.0 mi South 25.3 mph 32.2 mph N/A   Clear
11:53 AM 66.0 °F 53.1 °F 63% 29.80 in 10.0 mi South 24.2 mph 29.9 mph N/A   Clear
12:53 PM 64.9 °F 54.0 °F 68% 29.77 in 10.0 mi South 20.7 mph - N/A   Clear
1:53 PM 64.0 °F 54.0 °F 70% 29.75 in 10.0 mi South 21.9 mph - N/A   Clear
2:53 PM 64.0 °F 54.0 °F 70% 29.75 in 10.0 mi SSE 18.4 mph - N/A   Clear
3:53 PM 66.0 °F 55.0 °F 68% 29.76 in 10.0 mi SSE 10.4 mph - N/A   Clear
4:53 PM 64.0 °F 55.0 °F 73% 29.78 in 10.0 mi SSE 12.7 mph - N/A   Clear
5:53 PM 63.0 °F 54.0 °F 72% 29.79 in 10.0 mi SE 13.8 mph - N/A   Clear
6:53 PM 60.1 °F 53.1 °F 78% 29.80 in 10.0 mi ESE 9.2 mph - N/A   Clear
7:53 PM 59.0 °F 52.0 °F 78% 29.82 in 10.0 mi SE 9.2 mph - N/A   Clear
8:53 PM 57.9 °F 52.0 °F 81% 29.84 in 10.0 mi SE 8.1 mph - N/A   Clear
9:53 PM 60.1 °F 54.0 °F 80% 29.83 in 10.0 mi SSE 17.3 mph - N/A   Clear
10:53 PM 60.1 °F 54.0 °F 80% 29.84 in 10.0 mi SSE 16.1 mph - N/A   Clear
11:53 PM 60.1 °F 54.0 °F 80% 29.84 in 10.0 mi South 19.6 mph - N/A   Partly Cloudy